Weather History for Crestview, FL

Change the Weather History Date:

Sunday, June 30, 2013

  Actual Average Record
Temperature  
Mean Temperature 77 °F -  
Max Temperature 85 °F - - ()
Min Temperature 69 °F - - ()
Cooling Degree Days 12    
Growing Degree Days 27 (Base 50)    
Moisture  
Dew Point 71 °F    
Average Humidity 87    
Maximum Humidity 100    
Minimum Humidity 62    
Precipitation  
Precipitation 0.38 in - - ()
Sea Level Pressure  
Sea Level Pressure 29.75 in    
Wind  
Wind Speed 4 mph (SE)    
Max Wind Speed 17 mph    
Max Gust Speed 24 mph    
Visibility 8 miles    
Events Rain , Thunderstorm    
T = Trace of Precipitation, MM = Missing Value Source: NWS Daily Summary

Daily Weather History Graph

Daily Weather History Graph

Search for Another Location

Airport:

Trip Planner

Search our weather history database for the weather conditions in past years. The results will help you decide how hot, cold, wet, or windy it might be!

Date:

Astronomy

Jun. 30, 2013 Rise Set
Actual Time 5:46 AM CDT 7:52 PM CDT
Civil Twilight 5:19 AM CDT 8:20 PM CDT
Nautical Twilight 4:45 AM CDT 8:54 PM CDT
Astronomical Twilight 4:09 AM CDT 9:30 PM CDT
Moon 12:25 AM CDT 1:24 PM CDT
Length of Visible Light 15h 01m
Length of Day
14h 06m
Last Quarter, 45% of the Moon is Illuminated
Jun 30
Last Quarter
Jul 8
New
Jul 15
First Quarter
Jul 22
Full
Jul 29
Last Quarter

Hourly Weather History & Observations

Time (CDT) Temp. Heat Index Dew Point Humidity Pressure Visibility Wind Dir Wind Speed Gust Speed Precip Events Conditions
12:58 AM 74.8 °F - 71.8 °F 90% 29.75 in 10.0 mi NNW 3.5 mph - N/A   Partly Cloudy
1:13 AM 73.4 °F - 71.6 °F 94% 29.75 in 10.0 mi ENE 2.3 mph - N/A   Mostly Cloudy
1:28 AM 73.4 °F - 71.6 °F 94% 29.75 in 10.0 mi Calm Calm - N/A   Overcast
1:43 AM 75.2 °F - 71.6 °F 89% 29.74 in 10.0 mi Calm Calm - N/A   Overcast
1:58 AM 75.0 °F - 72.5 °F 92% 29.74 in 10.0 mi SE 2.3 mph - N/A   Scattered Clouds
2:58 AM 75.2 °F - 72.7 °F 92% 29.71 in 10.0 mi West 3.5 mph - N/A   Scattered Clouds
3:58 AM 73.9 °F - 71.2 °F 91% 29.73 in 10.0 mi NNW 2.3 mph - N/A   Clear
4:58 AM 72.5 °F - 70.9 °F 95% 29.73 in 10.0 mi Calm Calm - N/A   Clear
5:58 AM 71.2 °F - 70.9 °F 99% 29.74 in 7.0 mi East 1.2 mph - N/A   Partly Cloudy
6:18 AM 71.6 °F - 71.6 °F 100% 29.74 in 10.0 mi ESE 2.3 mph - N/A   Mostly Cloudy
6:23 AM 73.4 °F - 71.6 °F 94% 29.74 in 10.0 mi Calm Calm - N/A   Scattered Clouds
6:58 AM 73.6 °F - 72.3 °F 96% 29.75 in 10.0 mi Variable 1.2 mph - N/A   Partly Cloudy
7:13 AM 73.4 °F - 71.6 °F 94% 29.75 in 10.0 mi North 3.5 mph - N/A   Mostly Cloudy
7:38 AM 73.4 °F - 71.6 °F 94% 29.74 in 10.0 mi North 4.6 mph - N/A   Scattered Clouds
7:58 AM 74.1 °F - 72.3 °F 94% 29.75 in 10.0 mi North 3.5 mph - N/A Thunderstorm Scattered Clouds
7:59 AM 75.2 °F - 71.6 °F 89% 29.74 in 10.0 mi North 3.5 mph - N/A Rain , Thunderstorm Light Rain
8:14 AM 73.4 °F - 71.6 °F 94% 29.76 in 1.8 mi SW 5.8 mph - N/A Rain , Thunderstorm Thunderstorms and Rain
8:19 AM 73.4 °F - 71.6 °F 94% 29.76 in 1.0 mi SSE 6.9 mph - N/A Rain , Thunderstorm Heavy Thunderstorms and Rain
8:24 AM 73.4 °F - 71.6 °F 94% 29.76 in 1.2 mi East 5.8 mph - N/A Rain , Thunderstorm Light Thunderstorms and Rain
8:29 AM 73.4 °F - 71.6 °F 94% 29.75 in 6.0 mi NNE 5.8 mph - N/A Rain , Thunderstorm Light Thunderstorms and Rain
8:33 AM 73.4 °F - 71.6 °F 94% 29.76 in 10.0 mi North 5.8 mph - N/A Thunderstorm Thunderstorm
8:42 AM 73.4 °F - 71.6 °F 94% 29.76 in 10.0 mi North 5.8 mph - N/A Thunderstorm Scattered Clouds
8:58 AM 74.3 °F - 72.5 °F 94% 29.76 in 10.0 mi Calm Calm - 0.21 in Thunderstorm Partly Cloudy
9:58 AM 77.9 °F - 72.1 °F 82% 29.76 in 10.0 mi Calm Calm - N/A   Partly Cloudy
10:58 AM 81.3 °F 85.2 °F 70.9 °F 70% 29.76 in 10.0 mi North 4.6 mph - N/A   Partly Cloudy
11:58 AM 80.4 °F 84.8 °F 72.9 °F 78% 29.76 in 10.0 mi Variable 5.8 mph - N/A   Mostly Cloudy
12:58 PM 81.3 °F 85.8 °F 71.8 °F 73% 29.74 in 10.0 mi Variable 2.3 mph - N/A   Mostly Cloudy
1:58 PM 83.7 °F 88.6 °F 71.4 °F 66% 29.73 in 10.0 mi NW 4.6 mph - N/A   Mostly Cloudy
2:58 PM 84.4 °F 88.7 °F 70.0 °F 62% 29.73 in 10.0 mi Variable 1.2 mph - N/A   Scattered Clouds
3:58 PM 83.5 °F 89.7 °F 73.0 °F 71% 29.73 in 10.0 mi South 10.4 mph - N/A   Partly Cloudy
4:58 PM 83.1 °F 89.2 °F 73.4 °F 72% 29.73 in 10.0 mi South 4.6 mph - N/A   Partly Cloudy
5:58 PM 82.6 °F 88.8 °F 73.8 °F 75% 29.73 in 10.0 mi South 6.9 mph - N/A   Clear
6:39 PM 80.6 °F 85.4 °F 73.4 °F 79% 29.73 in 10.0 mi SSE 8.1 mph - N/A Thunderstorm Thunderstorm
6:48 PM 80.6 °F 85.4 °F 73.4 °F 79% 29.74 in 10.0 mi South 8.1 mph - N/A Rain , Thunderstorm Light Thunderstorms and Rain
6:58 PM 79.7 °F - 71.1 °F 75% 29.75 in 7.0 mi SW 11.5 mph 24.2 mph 0.00 in Rain , Thunderstorm Light Thunderstorms and Rain
7:03 PM 75.2 °F - 68.0 °F 78% 29.75 in 2.0 mi NW 17.3 mph 24.2 mph N/A Rain , Thunderstorm Heavy Thunderstorms and Rain
7:08 PM 73.4 °F - 68.0 °F 83% 29.76 in 1.2 mi West 10.4 mph 24.2 mph N/A Rain , Thunderstorm Heavy Thunderstorms and Rain
7:13 PM 71.6 °F - 68.0 °F 88% 29.76 in 1.5 mi SW 9.2 mph 24.2 mph N/A Rain , Thunderstorm Thunderstorms and Rain
7:18 PM 73.4 °F - 66.2 °F 78% 29.76 in 2.5 mi SE 5.8 mph - N/A Rain , Thunderstorm Heavy Thunderstorms and Rain
7:23 PM 73.4 °F - 68.0 °F 83% 29.76 in 4.0 mi SSE 8.1 mph - N/A Rain , Thunderstorm Light Thunderstorms and Rain
7:28 PM 73.4 °F - 68.0 °F 83% 29.75 in 8.0 mi SSE 9.2 mph - N/A Rain , Thunderstorm Light Thunderstorms and Rain
7:33 PM 73.4 °F - 68.0 °F 83% 29.75 in 10.0 mi SSE 6.9 mph - N/A Rain , Thunderstorm Light Thunderstorms and Rain
7:34 PM 73.4 °F - 68.0 °F 83% 29.74 in 10.0 mi South 5.8 mph - N/A   Scattered Clouds
7:58 PM 73.4 °F - 69.6 °F 88% 29.75 in 10.0 mi South 8.1 mph - 0.17 in   Clear
8:58 PM 72.1 °F - 69.8 °F 92% 29.77 in 10.0 mi NE 3.5 mph - N/A   Overcast
9:58 PM 71.8 °F - 70.5 °F 96% 29.78 in 10.0 mi WNW 2.3 mph - N/A   Partly Cloudy
10:58 PM 70.9 °F - 70.0 °F 97% 29.78 in 10.0 mi Calm Calm - N/A   Clear
11:58 PM 69.8 °F - 69.3 °F 98% 29.80 in 9.0 mi Calm Calm - N/A   Clear